Weather in Marukha

Russia / Karachay-Cherkess Republic     43°45′39″N   41°37′50″E
temp.,
°C
wind,
m/s
gust,
m/s
humid.,
%
clouds,
%
prec.,
mm/h
press.,
hPa
HPBL,
m
18 may, wed
wed1800:00+5s229027 0.0 101822
03:00+3s328831 0.0 101943
06:00+4s228198 0.0 101756
09:00+13nne22435 0.0 1013880
12:00+17n353981 0.0 10101486
15:00+20nw263411 0.0 10081750
18:00+16wnw255416 0.2 1009589
21:00+8ssw346786 0.3 101366
19 may, thu
thu1900:00+7s34603 0.0 101360
03:00+6sse2258100 0.0 101341
06:00+8ssw11632 0.0 101458
09:00+14n23495 0.0 1013895
12:00+11n647784 0.0 1015745
15:00+5n3396100 0.3 1019590
18:00+4nnw2398100 0.4 1019473
21:00+3nne1198100 4.4 1021405
20 may, fri
fri2000:00+3ene1099100 1.2 1021348
03:00+3ssw1198100 1.3 1021172
06:00+4wsw119297 0.0 102389
09:00+8nw245897 0.1 10221160
12:00+9nnw346396 0.5 10211291
15:00+9nw4564100 1.9 10201488
18:00+6nnw2494100 2.1 1022467
21:00+5sw2395100 3.6 1024312
21 may, sat
sat2100:00+3ssw229512 0.2 102342
03:00+1s33914 0.2 102349
06:00+3s23875 0.0 102270
09:00+12nnw12466 0.0 10161110
12:00+16nw233710 0.0 10141969
15:00+16ssw333556 0.0 10121955
18:00+13sw2457100 0.0 1013374
21:00+7sse3493100 1.3 1015103
22 may, sun
sun2200:00+5s358785 0.1 1014101
03:00+4s34824 0.1 101465
06:00+6s337432 0.0 101374
09:00+15n23415 0.0 10091285
12:00+17n34404 0.0 10071552
15:00+20w253584 0.0 10042410
18:00+14n327282 0.1 1006524
21:00+9sse229465 0.1 100777